McCall, ID

12:16 AM MDT on July 27, 2017 (GMT -0600)
McCall

Weather History for KMYL - July, 2014

Change the Weather History Date:

Saturday, July 12, 2014

  Actual Average Record
Temperature  
Mean Temperature 74 °F 60 °F  
Max Temperature 89 °F 78 °F 97 °F (2002)
Min Temperature 59 °F 43 °F 32 °F (1974)
Degree Days  
Heating Degree Days 0 5  
Month to date heating degree days 2 77  
Since 1 June heating degree days 316 444  
Since 1 July heating degree days 2 77  
Cooling Degree Days 9 0  
Month to date cooling degree days 54 0  
Year to date cooling degree days 54 1  
Since 1 June cooling degree days 54 1  
Growing Degree Days 24 (Base 50)    
Moisture  
Dew Point 40 °F    
Average Humidity 34    
Maximum Humidity 52    
Minimum Humidity 15    
Precipitation  
Precipitation 0.00 in 0.03 in 0.41 in (1976)
Month to date precipitation T 0.40  
Year to date precipitation 15.19 12.04  
Sea Level Pressure  
Sea Level Pressure 30.05 in    
Wind  
Wind Speed 4 mph (North)    
Max Wind Speed 9 mph    
Max Gust Speed -    
Visibility 10 miles    
Events      
T = Trace of Precipitation, MM = Missing Value Source: NWS Daily Summary

Daily Weather History Graph

Daily Weather History Graph

Search for Another Location

Airport or City:

Trip Planner

Search our weather history database for the weather conditions in past years. The results will help you decide how hot, cold, wet, or windy it might be!

Date:

Astronomy

Jul. 12, 2014 Rise Set
Actual Time 6:09 AM MDT 9:29 PM MDT
Civil Twilight 5:33 AM MDT 10:05 PM MDT
Nautical Twilight 4:46 AM MDT 10:52 PM MDT
Astronomical Twilight 3:47 AM MDT 11:51 PM MDT
Moon 9:29 PM MDT (7/12) 6:38 AM MDT (7/12)
Length of Visible Light 16h 32m
Length of Day
15h 19m
Full, 100% of the Moon is Illuminated
Jul 12
Full
Jul 18
Last Quarter
Jul 26
New
Aug 3
First Quarter
Aug 10
Full

Hourly Weather History & Observations

Time (MDT) Temp. Dew Point Humidity Pressure Visibility Wind Dir Wind Speed Gust Speed Precip Events Conditions
12:51 AM 72.0 °F 36.0 °F 27% 29.97 in 10.0 mi North 8.1 mph - N/A   Clear
1:51 AM 71.1 °F 37.0 °F 29% 29.98 in 10.0 mi North 6.9 mph - N/A   Clear
2:51 AM 69.1 °F 39.9 °F 35% 29.99 in 10.0 mi NNW 3.5 mph - N/A   Partly Cloudy
3:51 AM 69.1 °F 39.9 °F 35% 29.99 in 10.0 mi North 5.8 mph - N/A   Clear
4:51 AM 63.0 °F 42.1 °F 46% 30.00 in 10.0 mi Calm Calm - N/A   Clear
5:51 AM 62.1 °F 41.0 °F 46% 30.03 in 10.0 mi East 3.5 mph - N/A   Clear
6:51 AM 61.0 °F 43.0 °F 52% 30.06 in 10.0 mi Calm Calm - N/A   Clear
7:51 AM 62.1 °F 44.1 °F 52% 30.07 in 10.0 mi East 3.5 mph - N/A   Clear
8:51 AM 64.0 °F 45.0 °F 50% 30.08 in 10.0 mi Calm Calm - N/A   Partly Cloudy
9:51 AM 66.0 °F 46.9 °F 50% 30.10 in 10.0 mi Calm Calm - N/A   Clear
10:51 AM 70.0 °F 46.0 °F 42% 30.10 in 10.0 mi Calm Calm - N/A   Scattered Clouds
12:51 PM 82.0 °F 35.1 °F 18% 30.09 in 10.0 mi East 5.8 mph - N/A   Clear
1:51 PM 84.0 °F 35.1 °F 17% 30.07 in 10.0 mi Variable 4.6 mph - N/A   Clear
2:51 PM 87.1 °F 35.1 °F 16% 30.06 in 10.0 mi North - - N/A   Clear
4:51 PM 88.0 °F 34.0 °F 15% 30.05 in 10.0 mi North 5.8 mph - N/A   Clear
5:51 PM 86.0 °F 36.0 °F 17% 30.05 in 10.0 mi SSW 3.5 mph - N/A   Clear
6:51 PM 84.0 °F 36.0 °F 18% 30.05 in 10.0 mi Variable 3.5 mph - N/A   Clear
7:51 PM 84.0 °F 37.9 °F 19% 30.05 in 10.0 mi WNW 5.8 mph - N/A   Clear
8:51 PM 82.0 °F 42.1 °F 24% 30.06 in 10.0 mi NW 4.6 mph - N/A   Clear
9:51 PM 78.1 °F 39.9 °F 25% 30.08 in 10.0 mi North 9.2 mph - N/A   Clear
10:51 PM 73.9 °F 39.9 °F 29% 30.10 in 10.0 mi NNE 8.1 mph - N/A   Partly Cloudy